Regional Weather Roundup
Issued by NWS Newport/Morehead, NC

Current Version | Previous Version | Text Only | Print | Product List | Glossary Off
Versions: 1 2 3 4 5 6 7 8 9 10 11 12 13 14 15 16 17 18 19 20 21 22 23 24 25 26 27 28 29 30 31 32 33 34 35 36 37 38 39 40 41 42 43 44 45 46 47 48 49 50
000 ASUS42 KMHX 241813 RWRMHX WEATHER ROUNDUP FOR EASTERN NORTH CAROLINA NATIONAL WEATHER SERVICE NEWPORT/MOREHEAD CITY NC 200 PM EDT SAT JUN 24 2017 NOTE: "FAIR" INDICATES FEW OR NO CLOUDS BELOW 12,000 FEET WITH NO SIGNIFICANT WEATHER AND/OR OBSTRUCTIONS TO VISIBILITY NCZ015>017-031-032-045>047-102-103-241900- NORTH COAST CITY SKY/WX TMP DP RH WIND PRES REMARKS EDENTON MOSUNNY 91 70 50 W5 29.93S ELIZABETH CITY CLOUDY 89 73 59 W10 29.92S KITTY HAWK CLEAR 88 69 53 CALM 29.91S MANTEO MOSUNNY 88 72 58 W9 29.92S $$ NCZ045>047-081-094-103-104-241900- CENTRAL COAST CITY SKY/WX TMP DP RH WIND PRES REMARKS FRISCO SUNNY 84 76 76 SW17G23 29.96S $$ NCZ095-097-098-100-101-241900- SOUTHERN COAST CITY SKY/WX TMP DP RH WIND PRES REMARKS BEAUFORT SUNNY 86 80 82 SW24G32 29.96S HX 101 CEDAR ISLAND NOT AVBL JACKSONVILLE MOSUNNY 90 75 61 SW16G23 29.93F HX 100 PINEY ISLAND PTCLDY N/A N/A N/A SW16G24 29.94F WILMINGTON MOSUNNY 92 76 59 S15 29.95F HX 104 $$ NCZ011>013-027>030-043-044-078>080-089-090>093-098-241900- COASTAL PLAIN CITY SKY/WX TMP DP RH WIND PRES REMARKS AHOSKIE N/A 84 69 59 CALM 29.93S CLINTON PTSUNNY 87 76 70 SW7 29.94F ELIZABETHTOWN NOT AVBL GOLDSBORO PTSUNNY 88 76 66 W8 29.91F GREENVILLE MOSUNNY 90 70 51 SW7 29.95F HAVELOCK PTSUNNY 89 77 67 SW13 29.95F HX 101 KENANSVILLE CLOUDY 84 75 74 W12G18 29.95S KINSTON PTSUNNY 91 72 52 SW8 29.94F NEW BERN PTSUNNY 89 76 65 W9 29.94F HX 100 RICHLANDS MOSUNNY 91 75 59 SW8G18 29.94F HX 101 ROCKY MOUNT MOSUNNY 89 72 56 W6 29.93F WASHINGTON SUNNY N/A N/A N/A W6 29.93F WHITEVILLE SUNNY 91 72 52 SW10G17 29.95F $$ AMZ130-135-150-152-154-156-158-170-250-252-270-ANZ085-086-088-633-658-670-241900- MARINE OBSERVATIONS STATION/POSITION TIME TEMP WIND PRES WAVE SWELL AIR SEA DIR/SP/G HT/PER HT/PER (UTC) (F) (DEG/KT/KT) (MB) (FT/S) (FT/S) CHESAPEAKE LIGHT NOT AVBL 64 E VA BEACH 1750 74 72 230/ 2/ 2 1013.7 7/ 8 7/ 8 DUCK 1748 85 59 240/ 13/ 16 1012.8 2 E DUCK NOT AVBL OREGON INLET 1748 220/ 7/ 8 N/A 13E OREGON INLT 1748 74 N/A 4/ 8 3/ 8 HATTERAS CG 1748 81 78 230/ 14/ 19 1014.2 DIAMOND BUOY 1750 80 80 230/ 19/ 23 1014.2 8/ 8 3/ 8 CAPE LOOKOUT 1800 83 220/ 16/ 21 1014.4 BEAUFORT LAB 1748 83 79 210/ 13/ 19 1013.9 30 SE NEW RVR IN 1708 80 80 230/ 19/ 25 1015.6 30 SE NEW RVR IN 1743 80 N/A 7/ 7 27 SE WRIGHTSVLE 1708 79 80 200/ 17/ 23 1015.1 5 SE WRIGHTSVLE 1708 81 78 190/ 12/ 21 1015.3 225 S CAPE HAT 1750 81 81 210/ 14/ 16 1019.8 4/ 5 2/ 9 41 SE CHARLESTON 1750 81 81 220/ 14/ 17 1016.9 4/ 6 2/ 9 $$

USA.gov is the U.S. government's official web portal to all federal, state and local government web resources and services.